Simultaneous Nadir Overpasses (SNOs) Predictions

Prediction of SNOs between AQUA and METOP-B Satellite Orbit:

Table of predicted SNOs for the next 14.0 days since TLE Epoch: 4/13/2018
Index Date (AQUA) Time (AQUA) Lat,Lon (AQUA) SZA (AQUA ) Date (METOP-B) Time (METOP-B) Lat,Lon (METOP-B) SZA (METOP-B ) Distance(km) Time Diff (sec)
1 04/15/2018 18:18:33 -73.88, 79.68 116.08 04/15/2018 18:17:24 -73.88, 79.74 116.06 1.78 69
2 04/15/2018 19:08:01 73.90,-112.74 63.94 04/15/2018 19:08:03 73.92,-112.84 63.96 3.51 2
3 04/15/2018 19:57:29 -74.03, 54.62 115.94 04/15/2018 19:58:42 -74.06, 54.82 115.93 6.96 73
4 04/18/2018 13:52:48 -73.86, 146.16 117.09 04/18/2018 13:51:46 -73.84, 146.05 117.10 3.80 62
5 04/18/2018 14:42:17 73.93, -46.38 62.98 04/18/2018 14:42:24 73.92, -46.42 62.97 1.96 7
6 04/18/2018 15:31:49 -74.27, 120.51 116.68 04/18/2018 15:32:59 -74.26, 121.75 116.73 37.33 70
7 04/21/2018 09:27:03 -73.90,-147.49 118.02 04/21/2018 09:26:05 -73.90,-147.41 118.01 2.69 58
8 04/21/2018 10:16:31 73.92, 20.09 62.00 04/21/2018 10:16:44 73.92, 19.99 62.00 3.09 13
9 04/21/2018 11:06:07 -74.46,-173.52 117.44 04/21/2018 11:07:15 -74.47,-171.33 117.51 65.27 68
10 04/24/2018 05:01:18 -73.89, -81.05 118.97 04/24/2018 05:00:26 -73.90, -80.99 118.95 2.24 52
11 04/24/2018 05:50:47 73.97, 86.42 61.10 04/24/2018 05:51:04 73.97, 86.51 61.10 2.94 17
12 04/27/2018 00:35:33 -73.90, -14.62 119.88 04/27/2018 00:34:47 -73.91, -14.57 119.87 1.80 46
13 04/27/2018 01:25:02 73.97, 152.85 60.19 04/27/2018 01:25:25 73.97, 152.92 60.19 1.89 23




NCC Satellite Simultaneous Nadir Overpasses (SNOs) Prediction Service
